Time,TemperatureF,DewpointF,PressureIn,WindDirection,WindDirectionDegrees,WindSpeedMPH,WindSpeedGustMPH,Humidity,HourlyPrecipIn,Conditions,Clouds,dailyrainin,SoftwareType,DateUTC
2013-10-22 00:01:00,54.9,42.2,29.18,SW,217,0.0,0.0,62,0.00,,---,0.04,VWS V14.00,2013-10-22 05:01:00,
2013-10-22 00:03:00,54.9,42.2,29.18,SW,217,0.0,0.0,62,0.00,,---,0.00,VWS V14.00,2013-10-22 05:03:00,
2013-10-22 00:04:00,54.9,42.2,29.18,SW,217,0.0,0.0,62,0.00,,---,0.00,VWS V14.00,2013-10-22 05:04:00,
2013-10-22 00:10:00,54.9,42.2,29.18,SW,217,0.0,0.0,62,0.00,,---,0.00,VWS V14.00,2013-10-22 05:10:00,
2013-10-22 00:13:00,54.9,42.2,29.21,SW,217,0.0,0.0,62,0.00,,---,0.00,VWS V14.00,2013-10-22 05:13:00,
2013-10-22 00:16:00,54.9,42.2,29.21,SW,217,0.0,0.0,62,0.00,,---,0.00,VWS V14.00,2013-10-22 05:16:00,
2013-10-22 00:18:00,54.9,42.2,29.21,SW,217,0.0,0.0,62,0.00,,---,0.00,VWS V14.00,2013-10-22 05:18:00,
2013-10-22 00:22:00,54.9,42.2,29.21,SW,217,0.0,0.0,62,0.00,,---,0.00,VWS V14.00,2013-10-22 05:22:00,
2013-10-22 00:25:00,54.9,42.2,29.21,SW,217,0.0,0.0,62,0.00,,---,0.00,VWS V14.00,2013-10-22 05:25:00,
2013-10-22 00:28:00,54.9,42.2,29.21,SW,217,0.0,0.0,62,0.00,,---,0.00,VWS V14.00,2013-10-22 05:28:00,
2013-10-22 00:31:00,54.9,42.2,29.21,SW,217,0.0,0.0,62,0.00,,---,0.00,VWS V14.00,2013-10-22 05:31:00,
2013-10-22 00:33:00,54.9,42.2,29.21,SW,217,0.0,0.0,62,0.00,,---,0.00,VWS V14.00,2013-10-22 05:33:00,
2013-10-22 00:34:00,54.9,42.2,29.21,SW,217,0.0,0.0,62,0.00,,---,0.00,VWS V14.00,2013-10-22 05:34:00,
2013-10-22 00:40:00,54.9,42.2,29.21,SW,217,0.0,0.0,62,0.00,,---,0.00,VWS V14.00,2013-10-22 05:40:00,
2013-10-22 00:43:00,54.9,42.2,29.21,SW,217,0.0,0.0,62,0.00,,---,0.00,VWS V14.00,2013-10-22 05:43:00,
2013-10-22 00:48:00,54.9,42.2,29.21,SW,217,0.0,0.0,62,0.00,,---,0.00,VWS V14.00,2013-10-22 05:48:00,
2013-10-22 00:52:00,54.9,42.2,29.21,SW,217,0.0,0.0,62,0.00,,---,0.00,VWS V14.00,2013-10-22 05:52:00,
2013-10-22 00:58:00,54.9,42.2,29.21,SW,217,0.0,0.0,62,0.00,,---,0.00,VWS V14.00,2013-10-22 05:58:00,
2013-10-22 01:01:00,54.9,42.2,29.21,SW,217,0.0,0.0,62,0.00,,---,0.00,VWS V14.00,2013-10-22 06:01:00,
2013-10-22 01:03:00,54.9,42.2,29.21,SW,217,0.0,0.0,62,0.00,,---,0.00,VWS V14.00,2013-10-22 06:03:00,
2013-10-22 01:04:00,54.9,42.2,29.21,SW,217,0.0,0.0,62,0.00,,---,0.00,VWS V14.00,2013-10-22 06:04:00,
2013-10-22 01:10:00,54.9,42.2,29.21,SW,217,0.0,0.0,62,0.00,,---,0.00,VWS V14.00,2013-10-22 06:10:00,
2013-10-22 01:13:00,54.9,42.2,29.21,SW,217,0.0,0.0,62,0.00,,---,0.00,VWS V14.00,2013-10-22 06:13:00,
2013-10-22 01:16:00,54.9,42.2,29.21,SW,217,0.0,0.0,62,0.00,,---,0.00,VWS V14.00,2013-10-22 06:16:00,
2013-10-22 01:18:00,54.9,42.2,29.21,SW,217,0.0,0.0,62,0.00,,---,0.00,VWS V14.00,2013-10-22 06:18:00,
2013-10-22 01:19:00,50.8,37.4,29.21,SW,217,0.0,0.0,60,0.00,,---,0.00,VWS V14.00,2013-10-22 06:19:00,
2013-10-22 01:22:00,50.8,37.4,29.21,SW,217,0.0,0.0,60,0.00,,---,0.00,VWS V14.00,2013-10-22 06:22:00,
2013-10-22 01:25:00,50.8,37.4,29.21,SW,217,0.0,0.0,60,0.00,,---,0.00,VWS V14.00,2013-10-22 06:25:00,
2013-10-22 01:31:00,50.8,37.4,29.21,SW,217,0.0,0.0,60,0.00,,---,0.00,VWS V14.00,2013-10-22 06:31:00,
2013-10-22 01:33:00,50.8,37.4,29.21,SW,217,0.0,0.0,60,0.00,,---,0.00,VWS V14.00,2013-10-22 06:33:00,
2013-10-22 01:37:00,50.8,37.4,29.21,SW,217,0.0,0.0,60,0.00,,---,0.00,VWS V14.00,2013-10-22 06:37:00,
2013-10-22 01:43:00,50.8,37.4,29.21,SW,217,0.0,0.0,60,0.00,,---,0.00,VWS V14.00,2013-10-22 06:43:00,
2013-10-22 01:46:00,50.8,37.4,29.21,SW,217,0.0,0.0,60,0.00,,---,0.00,VWS V14.00,2013-10-22 06:46:00,
2013-10-22 01:48:00,50.8,37.4,29.21,SW,217,0.0,0.0,60,0.00,,---,0.00,VWS V14.00,2013-10-22 06:48:00,
2013-10-22 01:49:00,50.8,37.4,29.21,SW,217,0.0,0.0,60,0.00,,---,0.00,VWS V14.00,2013-10-22 06:49:00,
2013-10-22 01:55:00,50.2,37.3,29.21,SW,217,0.0,0.0,61,0.00,,---,0.00,VWS V14.00,2013-10-22 06:55:00,
2013-10-22 01:58:00,50.1,37.2,29.21,SW,217,0.0,0.0,61,0.00,,---,0.00,VWS V14.00,2013-10-22 06:58:00,
2013-10-22 02:01:00,50.1,37.2,29.21,SW,217,0.0,0.0,61,0.00,,---,0.00,VWS V14.00,2013-10-22 07:01:00,
2013-10-22 02:03:00,50.1,37.2,29.21,SW,217,0.0,0.0,61,0.00,,---,0.00,VWS V14.00,2013-10-22 07:03:00,
2013-10-22 02:04:00,50.1,37.2,29.21,SW,217,0.0,0.0,61,0.00,,---,0.00,VWS V14.00,2013-10-22 07:04:00,
2013-10-22 02:10:00,50.1,37.2,29.21,SW,217,0.0,0.0,61,0.00,,---,0.00,VWS V14.00,2013-10-22 07:10:00,
2013-10-22 02:13:00,50.1,37.2,29.21,SW,217,0.0,0.0,61,0.00,,---,0.00,VWS V14.00,2013-10-22 07:13:00,
2013-10-22 02:16:00,50.1,37.2,29.21,SW,217,0.0,0.0,61,0.00,,---,0.00,VWS V14.00,2013-10-22 07:16:00,
2013-10-22 02:22:00,50.1,37.2,29.21,SW,217,0.0,0.0,61,0.00,,---,0.00,VWS V14.00,2013-10-22 07:22:00,
2013-10-22 02:26:00,49.5,37.0,29.21,SW,217,0.0,0.0,62,0.00,,---,0.00,VWS V14.00,2013-10-22 07:26:00,
2013-10-22 02:29:00,49.5,37.0,29.21,SW,217,0.0,0.0,62,0.00,,---,0.00,VWS V14.00,2013-10-22 07:29:00,
2013-10-22 02:32:00,49.5,37.0,29.21,SW,217,0.0,0.0,62,0.00,,---,0.00,VWS V14.00,2013-10-22 07:32:00,
2013-10-22 02:33:00,49.3,36.9,29.21,SW,217,0.0,0.0,62,0.00,,---,0.00,VWS V14.00,2013-10-22 07:33:00,
2013-10-22 02:35:00,49.3,36.9,29.21,SW,217,0.0,0.0,62,0.00,,---,0.00,VWS V14.00,2013-10-22 07:35:00,
2013-10-22 02:38:00,49.3,36.9,29.21,SW,217,0.0,0.0,62,0.00,,---,0.00,VWS V14.00,2013-10-22 07:38:00,
2013-10-22 02:41:00,49.3,36.9,29.21,SW,217,0.0,0.0,62,0.00,,---,0.00,VWS V14.00,2013-10-22 07:41:00,
2013-10-22 02:44:00,49.3,36.9,29.21,SW,217,0.0,0.0,62,0.00,,---,0.00,VWS V14.00,2013-10-22 07:44:00,
2013-10-22 02:47:00,49.3,36.9,29.21,SW,217,0.0,0.0,62,0.00,,---,0.00,VWS V14.00,2013-10-22 07:47:00,
2013-10-22 02:48:00,49.3,36.9,29.21,SW,217,0.0,0.0,62,0.00,,---,0.00,VWS V14.00,2013-10-22 07:48:00,
2013-10-22 02:50:00,49.3,36.9,29.21,SW,217,0.0,0.0,62,0.00,,---,0.00,VWS V14.00,2013-10-22 07:50:00,
2013-10-22 02:53:00,49.3,36.9,29.18,SW,217,0.0,0.0,62,0.00,,---,0.00,VWS V14.00,2013-10-22 07:53:00,
2013-10-22 02:56:00,49.3,36.9,29.18,SW,217,0.0,0.0,62,0.00,,---,0.00,VWS V14.00,2013-10-22 07:56:00,
2013-10-22 02:59:00,49.0,36.5,29.18,SW,217,0.0,0.0,62,0.00,,---,0.00,VWS V14.00,2013-10-22 07:59:00,
2013-10-22 03:02:00,49.0,36.5,29.18,SW,217,0.0,0.0,62,0.00,,---,0.00,VWS V14.00,2013-10-22 08:02:00,
2013-10-22 03:05:00,49.0,36.5,29.18,SW,217,0.0,0.0,62,0.00,,---,0.00,VWS V14.00,2013-10-22 08:05:00,
2013-10-22 03:08:00,49.0,36.5,29.18,SW,217,0.0,0.0,62,0.00,,---,0.00,VWS V14.00,2013-10-22 08:08:00,
2013-10-22 03:11:00,49.0,36.5,29.18,SW,217,0.0,0.0,62,0.00,,---,0.00,VWS V14.00,2013-10-22 08:11:00,
2013-10-22 03:14:00,49.0,36.5,29.18,SW,217,0.0,0.0,62,0.00,,---,0.00,VWS V14.00,2013-10-22 08:14:00,
2013-10-22 03:17:00,48.8,36.4,29.18,SW,217,0.0,0.0,62,0.00,,---,0.00,VWS V14.00,2013-10-22 08:17:00,
2013-10-22 03:18:00,48.8,36.4,29.18,NNW,335,0.0,0.0,62,0.00,,---,0.00,VWS V14.00,2013-10-22 08:18:00,
2013-10-22 03:20:00,48.8,36.4,29.18,NNW,335,0.0,0.0,62,0.00,,---,0.00,VWS V14.00,2013-10-22 08:20:00,
2013-10-22 03:23:00,48.8,36.4,29.18,NNW,335,0.0,0.0,62,0.00,,---,0.00,VWS V14.00,2013-10-22 08:23:00,
2013-10-22 03:26:00,48.8,36.4,29.18,NNW,335,0.0,0.0,62,0.00,,---,0.00,VWS V14.00,2013-10-22 08:26:00,
2013-10-22 03:29:00,48.6,36.2,29.18,NNW,335,0.0,0.0,62,0.00,,---,0.00,VWS V14.00,2013-10-22 08:29:00,
2013-10-22 03:32:00,48.6,36.2,29.18,NNW,335,0.0,0.0,62,0.00,,---,0.00,VWS V14.00,2013-10-22 08:32:00,
2013-10-22 03:33:00,48.6,36.2,29.18,NNW,335,0.0,0.0,62,0.00,,---,0.00,VWS V14.00,2013-10-22 08:33:00,
2013-10-22 03:35:00,48.6,36.2,29.18,NNW,335,0.0,0.0,62,0.00,,---,0.00,VWS V14.00,2013-10-22 08:35:00,
2013-10-22 03:38:00,48.6,36.2,29.18,NNW,335,0.0,0.0,62,0.00,,---,0.00,VWS V14.00,2013-10-22 08:38:00,
2013-10-22 03:41:00,48.6,36.2,29.18,NNW,335,0.0,0.0,62,0.00,,---,0.00,VWS V14.00,2013-10-22 08:41:00,
2013-10-22 03:44:00,48.6,36.2,29.18,NNW,335,0.0,0.0,62,0.00,,---,0.00,VWS V14.00,2013-10-22 08:44:00,
2013-10-22 03:47:00,48.6,36.2,29.18,NNW,335,0.0,0.0,62,0.00,,---,0.00,VWS V14.00,2013-10-22 08:47:00,
2013-10-22 03:50:00,48.3,35.9,29.18,NNW,335,0.0,0.0,62,0.00,,---,0.00,VWS V14.00,2013-10-22 08:50:00,
2013-10-22 03:53:00,48.3,35.9,29.18,NNW,335,0.0,0.0,62,0.00,,---,0.00,VWS V14.00,2013-10-22 08:53:00,
2013-10-22 03:56:00,48.3,35.9,29.18,NNW,335,0.0,0.0,62,0.00,,---,0.00,VWS V14.00,2013-10-22 08:56:00,
2013-10-22 04:02:00,47.9,35.9,29.18,NNW,335,0.0,0.0,63,0.00,,---,0.00,VWS V14.00,2013-10-22 09:02:00,
2013-10-22 04:05:00,47.9,35.9,29.18,NNW,335,0.0,0.0,63,0.00,,---,0.00,VWS V14.00,2013-10-22 09:05:00,
2013-10-22 04:08:00,47.9,35.9,29.18,NNW,335,0.0,0.0,63,0.00,,---,0.00,VWS V14.00,2013-10-22 09:08:00,
2013-10-22 04:11:00,47.9,35.9,29.18,NNW,335,0.0,0.0,63,0.00,,---,0.00,VWS V14.00,2013-10-22 09:11:00,
2013-10-22 04:14:00,47.9,35.9,29.18,NNW,335,0.0,0.0,63,0.00,,---,0.00,VWS V14.00,2013-10-22 09:14:00,
2013-10-22 04:17:00,47.9,35.9,29.18,NNW,335,0.0,0.0,63,0.00,,---,0.00,VWS V14.00,2013-10-22 09:17:00,
2013-10-22 04:18:00,47.9,35.9,29.18,NNW,335,0.0,0.0,63,0.00,,---,0.00,VWS V14.00,2013-10-22 09:18:00,
2013-10-22 04:23:00,47.9,35.9,29.18,NNW,335,0.0,0.0,63,0.00,,---,0.00,VWS V14.00,2013-10-22 09:23:00,
2013-10-22 04:26:00,47.9,35.9,29.18,NNW,335,0.0,0.0,63,0.00,,---,0.00,VWS V14.00,2013-10-22 09:26:00,
2013-10-22 04:29:00,47.9,35.9,29.18,NNW,335,0.0,0.0,63,0.00,,---,0.00,VWS V14.00,2013-10-22 09:29:00,
2013-10-22 04:32:00,47.9,36.7,29.18,NNW,335,0.0,0.0,65,0.00,,---,0.00,VWS V14.00,2013-10-22 09:32:00,
2013-10-22 04:35:00,47.9,36.7,29.18,NNW,335,0.0,0.0,65,0.00,,---,0.00,VWS V14.00,2013-10-22 09:35:00,
2013-10-22 04:38:00,47.9,36.7,29.18,NNW,335,0.0,0.0,65,0.00,,---,0.00,VWS V14.00,2013-10-22 09:38:00,
2013-10-22 04:41:00,47.9,36.7,29.18,NNW,335,0.0,0.0,65,0.00,,---,0.00,VWS V14.00,2013-10-22 09:41:00,
2013-10-22 04:47:00,47.9,36.7,29.18,NNW,335,0.0,0.0,65,0.00,,---,0.00,VWS V14.00,2013-10-22 09:47:00,
2013-10-22 04:50:00,47.9,36.7,29.18,NNW,335,0.0,0.0,65,0.00,,---,0.00,VWS V14.00,2013-10-22 09:50:00,
2013-10-22 04:53:00,47.9,36.7,29.18,NNW,335,0.0,0.0,65,0.00,,---,0.00,VWS V14.00,2013-10-22 09:53:00,
2013-10-22 04:56:00,47.9,36.7,29.18,NNW,335,0.0,0.0,65,0.00,,---,0.00,VWS V14.00,2013-10-22 09:56:00,
2013-10-22 05:02:00,47.9,36.7,29.18,NNW,335,0.0,0.0,65,0.00,,---,0.00,VWS V14.00,2013-10-22 10:02:00,
2013-10-22 05:03:00,47.9,36.7,29.18,NNW,335,0.0,0.0,65,0.00,,---,0.00,VWS V14.00,2013-10-22 10:03:00,
2013-10-22 05:08:00,47.9,36.7,29.18,NNW,335,0.0,0.0,65,0.00,,---,0.00,VWS V14.00,2013-10-22 10:08:00,
2013-10-22 05:11:00,47.9,36.7,29.18,NNW,335,0.0,0.0,65,0.00,,---,0.00,VWS V14.00,2013-10-22 10:11:00,
2013-10-22 05:14:00,48.1,36.9,29.18,NNW,335,0.0,0.0,65,0.00,,---,0.00,VWS V14.00,2013-10-22 10:14:00,
2013-10-22 05:17:00,48.1,36.9,29.18,NNW,335,0.0,0.0,65,0.00,,---,0.00,VWS V14.00,2013-10-22 10:17:00,
2013-10-22 05:20:00,48.1,36.9,29.18,NNW,335,0.0,0.0,65,0.00,,---,0.00,VWS V14.00,2013-10-22 10:20:00,
2013-10-22 05:23:00,48.1,37.3,29.18,NNW,335,0.0,0.0,66,0.00,,---,0.00,VWS V14.00,2013-10-22 10:23:00,
2013-10-22 05:29:00,48.1,37.3,29.18,NNW,335,0.0,0.0,66,0.00,,---,0.00,VWS V14.00,2013-10-22 10:29:00,
2013-10-22 05:32:00,48.1,37.3,29.18,NNW,335,0.0,0.0,66,0.00,,---,0.00,VWS V14.00,2013-10-22 10:32:00,
2013-10-22 05:35:00,48.1,37.3,29.18,NNW,335,0.0,0.0,66,0.00,,---,0.00,VWS V14.00,2013-10-22 10:35:00,
2013-10-22 05:38:00,48.1,37.3,29.18,NNW,335,0.0,0.0,66,0.00,,---,0.00,VWS V14.00,2013-10-22 10:38:00,
2013-10-22 05:41:00,48.1,37.3,29.18,NNW,335,0.0,0.0,66,0.00,,---,0.00,VWS V14.00,2013-10-22 10:41:00,
2013-10-22 05:44:00,48.1,37.3,29.18,NNW,335,0.0,0.0,66,0.00,,---,0.00,VWS V14.00,2013-10-22 10:44:00,
2013-10-22 05:48:00,48.1,37.3,29.18,NNW,335,0.0,0.0,66,0.00,,---,0.00,VWS V14.00,2013-10-22 10:48:00,
2013-10-22 05:50:00,48.1,37.3,29.18,NNW,335,0.0,0.0,66,0.00,,---,0.00,VWS V14.00,2013-10-22 10:50:00,
2013-10-22 05:53:00,48.1,37.3,29.18,NNW,335,0.0,0.0,66,0.00,,---,0.00,VWS V14.00,2013-10-22 10:53:00,
2013-10-22 05:56:00,48.1,37.3,29.18,NNW,335,0.0,0.0,66,0.00,,---,0.00,VWS V14.00,2013-10-22 10:56:00,
2013-10-22 05:59:00,48.1,37.3,29.18,NNW,335,0.0,0.0,66,0.00,,---,0.00,VWS V14.00,2013-10-22 10:59:00,
2013-10-22 06:02:00,47.9,37.5,29.18,NNW,335,0.0,0.0,67,0.00,,---,0.00,VWS V14.00,2013-10-22 11:02:00,
2013-10-22 06:05:00,48.1,37.7,29.18,NNW,335,0.0,0.0,67,0.00,,---,0.00,VWS V14.00,2013-10-22 11:05:00,
2013-10-22 06:08:00,48.1,37.7,29.18,NNW,335,0.0,0.0,67,0.00,,---,0.00,VWS V14.00,2013-10-22 11:08:00,
2013-10-22 06:11:00,48.1,37.7,29.18,NNW,335,0.0,0.0,67,0.00,,---,0.00,VWS V14.00,2013-10-22 11:11:00,
2013-10-22 06:14:00,48.1,37.7,29.18,NNW,335,0.0,0.0,67,0.00,,---,0.00,VWS V14.00,2013-10-22 11:14:00,
2013-10-22 06:17:00,48.1,37.7,29.18,NNW,335,0.0,0.0,67,0.00,,---,0.00,VWS V14.00,2013-10-22 11:17:00,
2013-10-22 06:20:00,47.9,37.5,29.18,NNW,335,0.0,0.0,67,0.00,,---,0.00,VWS V14.00,2013-10-22 11:20:00,
2013-10-22 06:26:00,48.1,37.7,29.18,NNW,335,0.0,0.0,67,0.00,,---,0.00,VWS V14.00,2013-10-22 11:26:00,
2013-10-22 06:29:00,48.1,37.7,29.18,NNW,335,0.0,0.0,67,0.00,,---,0.00,VWS V14.00,2013-10-22 11:29:00,
2013-10-22 06:32:00,48.1,37.7,29.18,NNW,335,0.0,0.0,67,0.00,,---,0.00,VWS V14.00,2013-10-22 11:32:00,
2013-10-22 06:38:00,48.1,37.7,29.18,West,277,0.0,0.0,67,0.00,,---,0.00,VWS V14.00,2013-10-22 11:38:00,
2013-10-22 06:41:00,48.1,37.7,29.18,SSE,165,2.2,2.7,67,0.00,,---,0.00,VWS V14.00,2013-10-22 11:41:00,
2013-10-22 06:44:00,48.1,38.0,29.18,SSE,166,0.0,2.7,68,0.00,,---,0.00,VWS V14.00,2013-10-22 11:44:00,
2013-10-22 06:47:00,48.1,38.0,29.18,SSE,156,0.0,2.7,68,0.00,,---,0.00,VWS V14.00,2013-10-22 11:47:00,
2013-10-22 06:48:00,48.1,38.0,29.18,SSE,160,0.0,2.7,68,0.00,,---,0.00,VWS V14.00,2013-10-22 11:48:00,
2013-10-22 06:53:00,48.1,38.0,29.18,South,169,4.0,4.0,68,0.00,,---,0.00,VWS V14.00,2013-10-22 11:53:00,
2013-10-22 06:56:00,48.1,38.0,29.18,South,169,4.0,4.0,68,0.00,,---,0.00,VWS V14.00,2013-10-22 11:56:00,
2013-10-22 07:02:00,47.9,37.9,29.18,South,188,3.6,4.0,68,0.00,,---,0.00,VWS V14.00,2013-10-22 12:02:00,
2013-10-22 07:03:00,47.9,37.9,29.18,SSE,160,3.6,4.0,68,0.00,,---,0.00,VWS V14.00,2013-10-22 12:03:00,
2013-10-22 07:05:00,47.9,37.9,29.18,SSE,160,3.6,3.6,68,0.00,,---,0.00,VWS V14.00,2013-10-22 12:05:00,
2013-10-22 07:08:00,47.9,37.9,29.18,SSE,158,2.7,3.6,68,0.00,,---,0.00,VWS V14.00,2013-10-22 12:08:00,
2013-10-22 07:11:00,47.9,37.9,29.18,SSE,159,2.7,4.0,68,0.00,,---,0.00,VWS V14.00,2013-10-22 12:11:00,
2013-10-22 07:17:00,47.9,37.9,29.18,SSE,152,2.2,4.9,68,0.00,,---,0.00,VWS V14.00,2013-10-22 12:17:00,
2013-10-22 07:18:00,47.9,37.9,29.18,SSE,152,2.2,4.9,68,0.00,,---,0.00,VWS V14.00,2013-10-22 12:18:00,
2013-10-22 07:20:00,47.7,37.3,29.18,SSE,164,2.7,2.7,67,0.00,,---,0.00,VWS V14.00,2013-10-22 12:20:00,
2013-10-22 07:26:00,47.7,37.3,29.18,South,169,3.6,3.6,67,0.00,,---,0.00,VWS V14.00,2013-10-22 12:26:00,
2013-10-22 07:29:00,47.7,37.3,29.18,SSE,157,3.6,3.6,67,0.00,,---,0.00,VWS V14.00,2013-10-22 12:29:00,
2013-10-22 07:32:00,47.7,37.3,29.18,SSE,160,4.0,4.9,67,0.00,,---,0.00,VWS V14.00,2013-10-22 12:32:00,
2013-10-22 07:35:00,47.5,37.1,29.18,SSE,150,3.6,5.4,67,0.00,,---,0.00,VWS V14.00,2013-10-22 12:35:00,
2013-10-22 07:38:00,47.4,37.0,29.18,SSE,150,3.6,5.4,67,0.00,,---,0.00,VWS V14.00,2013-10-22 12:38:00,
2013-10-22 07:41:00,47.4,37.0,29.18,SSE,164,3.6,5.4,67,0.00,,---,0.00,VWS V14.00,2013-10-22 12:41:00,
2013-10-22 07:44:00,47.4,37.0,29.18,SSE,164,0.0,5.4,67,0.00,,---,0.00,VWS V14.00,2013-10-22 12:44:00,
2013-10-22 07:50:00,47.4,36.6,29.18,SSE,164,0.0,0.0,66,0.00,,---,0.00,VWS V14.00,2013-10-22 12:50:00,
2013-10-22 07:56:00,47.4,36.6,29.18,SSE,164,2.7,2.7,66,0.00,,---,0.00,VWS V14.00,2013-10-22 12:56:00,
2013-10-22 07:59:00,47.4,36.6,29.18,SSE,164,0.0,2.7,66,0.00,,---,0.00,VWS V14.00,2013-10-22 12:59:00,
2013-10-22 08:02:00,47.4,36.6,29.18,SSE,164,0.0,2.7,66,0.00,,---,0.00,VWS V14.00,2013-10-22 13:02:00,
2013-10-22 08:05:00,47.4,36.6,29.18,SSE,164,0.0,0.0,66,0.00,,---,0.00,VWS V14.00,2013-10-22 13:05:00,
2013-10-22 08:08:00,47.4,36.6,29.18,SSE,164,0.0,0.0,66,0.00,,---,0.00,VWS V14.00,2013-10-22 13:08:00,
2013-10-22 08:11:00,47.4,36.6,29.18,SSE,164,0.0,0.0,66,0.00,,---,0.00,VWS V14.00,2013-10-22 13:11:00,
2013-10-22 08:14:00,47.4,36.6,29.18,SSE,164,0.0,0.0,66,0.00,,---,0.00,VWS V14.00,2013-10-22 13:14:00,
2013-10-22 08:18:00,47.4,36.6,29.18,SSE,164,0.0,0.0,66,0.00,,---,0.00,VWS V14.00,2013-10-22 13:18:00,
2013-10-22 08:23:00,47.5,36.8,29.18,South,174,0.0,3.1,66,0.00,,---,0.00,VWS V14.00,2013-10-22 13:23:00,
2013-10-22 08:26:00,47.5,36.8,29.18,South,174,0.0,3.1,66,0.00,,---,0.00,VWS V14.00,2013-10-22 13:26:00,
2013-10-22 08:33:00,47.7,37.3,29.18,SSE,162,0.0,3.1,67,0.00,,---,0.00,VWS V14.00,2013-10-22 13:33:00,
2013-10-22 08:39:00,48.1,37.7,29.18,SSE,149,2.7,4.0,67,0.00,,---,0.00,VWS V14.00,2013-10-22 13:39:00,
2013-10-22 08:42:00,48.1,37.7,29.18,South,177,5.4,5.4,67,0.00,,---,0.00,VWS V14.00,2013-10-22 13:42:00,
2013-10-22 08:45:00,48.6,38.2,29.18,South,173,4.9,5.4,67,0.00,,---,0.00,VWS V14.00,2013-10-22 13:45:00,
2013-10-22 08:48:00,48.6,38.2,29.18,South,169,3.1,5.4,67,0.00,,---,0.00,VWS V14.00,2013-10-22 13:48:00,
2013-10-22 08:51:00,49.2,38.7,29.18,South,170,0.0,3.1,67,0.00,,---,0.00,VWS V14.00,2013-10-22 13:51:00,
2013-10-22 08:54:00,50.1,39.5,29.18,SSE,160,3.6,3.6,67,0.00,,---,0.00,VWS V14.00,2013-10-22 13:54:00,
2013-10-22 08:57:00,50.1,39.5,29.18,SSE,166,2.7,3.6,67,0.00,,---,0.00,VWS V14.00,2013-10-22 13:57:00,
2013-10-22 09:00:00,50.1,39.5,29.18,South,175,4.0,4.0,67,0.00,,---,0.00,VWS V14.00,2013-10-22 14:00:00,
2013-10-22 09:03:00,52.0,41.0,29.18,SSE,151,4.9,4.9,66,0.00,,---,0.00,VWS V14.00,2013-10-22 14:03:00,
2013-10-22 09:09:00,52.6,41.2,29.18,South,173,5.4,5.4,65,0.00,,---,0.00,VWS V14.00,2013-10-22 14:09:00,
2013-10-22 09:12:00,54.2,41.9,29.18,South,170,5.8,5.8,63,0.00,,---,0.00,VWS V14.00,2013-10-22 14:12:00,
2013-10-22 09:15:00,54.6,42.2,29.18,SSE,167,4.9,5.8,63,0.00,,---,0.00,VWS V14.00,2013-10-22 14:15:00,
2013-10-22 09:18:00,54.6,42.2,29.18,SSE,167,4.9,5.8,63,0.00,,---,0.00,VWS V14.00,2013-10-22 14:18:00,
2013-10-22 09:21:00,56.4,42.7,29.18,South,174,3.6,4.9,60,0.00,,---,0.00,VWS V14.00,2013-10-22 14:21:00,
2013-10-22 09:24:00,56.4,42.7,29.18,SSE,150,4.0,4.9,60,0.00,,---,0.00,VWS V14.00,2013-10-22 14:24:00,
2013-10-22 09:30:00,57.6,43.4,29.18,SE,140,2.7,5.8,59,0.00,,---,0.00,VWS V14.00,2013-10-22 14:30:00,
2013-10-22 09:33:00,57.6,43.4,29.18,SSE,164,4.9,4.9,59,0.00,,---,0.00,VWS V14.00,2013-10-22 14:33:00,
2013-10-22 09:36:00,59.6,43.4,29.18,South,191,4.0,4.9,55,0.00,,---,0.00,VWS V14.00,2013-10-22 14:36:00,
2013-10-22 09:39:00,60.1,43.5,29.18,SSE,162,3.6,4.9,54,0.00,,---,0.00,VWS V14.00,2013-10-22 14:39:00,
2013-10-22 09:42:00,60.1,43.5,29.18,SSE,161,4.9,4.9,54,0.00,,---,0.00,VWS V14.00,2013-10-22 14:42:00,
2013-10-22 09:45:00,61.0,43.8,29.18,SSE,161,3.6,4.9,53,0.00,,---,0.00,VWS V14.00,2013-10-22 14:45:00,
2013-10-22 09:48:00,61.0,43.8,29.18,South,173,5.8,5.8,53,0.00,,---,0.00,VWS V14.00,2013-10-22 14:48:00,
2013-10-22 09:54:00,61.8,43.0,29.18,SSE,157,2.2,5.8,50,0.00,,---,0.00,VWS V14.00,2013-10-22 14:54:00,
2013-10-22 09:57:00,61.8,43.0,29.18,South,177,0.0,5.8,50,0.00,,---,0.00,VWS V14.00,2013-10-22 14:57:00,
2013-10-22 10:00:00,61.8,42.4,29.18,South,177,0.0,5.8,49,0.00,,---,0.00,VWS V14.00,2013-10-22 15:00:00,
2013-10-22 10:03:00,61.8,42.4,29.18,ENE,75,2.7,2.7,49,0.00,,---,0.00,VWS V14.00,2013-10-22 15:03:00,
2013-10-22 10:09:00,61.9,42.6,29.18,SSE,151,3.6,3.6,49,0.00,,---,0.00,VWS V14.00,2013-10-22 15:09:00,
2013-10-22 10:15:00,61.9,42.6,29.18,SSE,168,3.6,5.4,49,0.00,,---,0.00,VWS V14.00,2013-10-22 15:15:00,
2013-10-22 10:18:00,62.3,42.9,29.18,SSE,150,3.6,5.4,49,0.00,,---,0.00,VWS V14.00,2013-10-22 15:18:00,
2013-10-22 10:21:00,62.3,42.9,29.18,South,170,6.3,6.3,49,0.00,,---,0.00,VWS V14.00,2013-10-22 15:21:00,
2013-10-22 10:27:00,62.7,43.2,29.18,SSE,165,4.9,6.3,49,0.00,,---,0.00,VWS V14.00,2013-10-22 15:27:00,
2013-10-22 10:33:00,62.8,43.4,29.15,SSE,153,4.5,6.3,49,0.00,,---,0.00,VWS V14.00,2013-10-22 15:33:00,
2013-10-22 10:36:00,63.0,43.0,29.15,SSE,153,4.9,4.9,48,0.00,,---,0.00,VWS V14.00,2013-10-22 15:36:00,
2013-10-22 10:39:00,63.2,43.2,29.15,SSW,213,4.0,4.9,48,0.00,,---,0.00,VWS V14.00,2013-10-22 15:39:00,
2013-10-22 10:42:00,63.4,43.4,29.15,South,171,6.3,6.3,48,0.00,,---,0.00,VWS V14.00,2013-10-22 15:42:00,
2013-10-22 10:45:00,63.6,43.5,29.15,SSE,150,5.4,6.3,48,0.00,,---,0.00,VWS V14.00,2013-10-22 15:45:00,
2013-10-22 10:48:00,63.6,43.5,29.15,SSE,160,5.4,5.4,48,0.00,,---,0.00,VWS V14.00,2013-10-22 15:48:00,
2013-10-22 10:51:00,63.7,43.2,29.15,SSE,167,5.8,5.8,47,0.00,,---,0.00,VWS V14.00,2013-10-22 15:51:00,
2013-10-22 10:54:00,63.9,43.3,29.15,SSE,161,6.3,6.3,47,0.00,,---,0.00,VWS V14.00,2013-10-22 15:54:00,
2013-10-22 10:57:00,63.9,43.3,29.15,South,169,5.8,6.7,47,0.00,,---,0.00,VWS V14.00,2013-10-22 15:57:00,
2013-10-22 11:00:00,64.1,43.5,29.15,South,175,5.4,6.7,47,0.00,,---,0.00,VWS V14.00,2013-10-22 16:00:00,
2013-10-22 11:03:00,64.1,43.5,29.15,South,178,5.4,5.4,47,0.00,,---,0.00,VWS V14.00,2013-10-22 16:03:00,
2013-10-22 11:06:00,64.1,43.5,29.15,South,178,5.4,5.4,47,0.00,,---,0.00,VWS V14.00,2013-10-22 16:06:00,
2013-10-22 11:12:00,64.3,43.1,29.15,SSE,159,5.4,5.4,46,0.00,,---,0.00,VWS V14.00,2013-10-22 16:12:00,
2013-10-22 11:15:00,64.3,43.1,29.15,SSE,159,5.4,5.4,46,0.00,,---,0.00,VWS V14.00,2013-10-22 16:15:00,
2013-10-22 11:21:00,64.3,43.1,29.15,SSE,163,5.4,5.8,46,0.00,,---,0.00,VWS V14.00,2013-10-22 16:21:00,
2013-10-22 11:24:00,64.3,43.1,29.15,SSE,160,4.0,5.8,46,0.00,,---,0.00,VWS V14.00,2013-10-22 16:24:00,
2013-10-22 11:30:00,63.9,42.8,29.12,South,178,5.8,5.8,46,0.00,,---,0.00,VWS V14.00,2013-10-22 16:30:00,
2013-10-22 11:33:00,63.9,42.8,29.12,South,177,3.6,5.8,46,0.00,,---,0.00,VWS V14.00,2013-10-22 16:33:00,
2013-10-22 11:36:00,63.7,42.6,29.12,South,170,5.4,5.4,46,0.00,,---,0.00,VWS V14.00,2013-10-22 16:36:00,
2013-10-22 11:39:00,63.4,42.3,29.12,South,180,7.6,7.6,46,0.00,,---,0.00,VWS V14.00,2013-10-22 16:39:00,
2013-10-22 11:42:00,63.0,41.9,29.12,South,181,4.9,7.6,46,0.00,,---,0.00,VWS V14.00,2013-10-22 16:42:00,
2013-10-22 11:45:00,63.0,41.9,29.12,SSE,166,6.3,7.6,46,0.00,,---,0.00,VWS V14.00,2013-10-22 16:45:00,
2013-10-22 11:48:00,63.0,41.9,29.12,SSE,152,6.3,7.6,46,0.00,,---,0.00,VWS V14.00,2013-10-22 16:48:00,
2013-10-22 11:51:00,62.7,41.6,29.12,SSE,164,5.8,6.3,46,0.00,,---,0.00,VWS V14.00,2013-10-22 16:51:00,
2013-10-22 11:54:00,62.7,41.6,29.12,SSE,161,3.1,6.3,46,0.00,,---,0.00,VWS V14.00,2013-10-22 16:54:00,
2013-10-22 11:57:00,62.3,41.3,29.12,SSE,161,3.1,6.3,46,0.00,,---,0.00,VWS V14.00,2013-10-22 16:57:00,
2013-10-22 12:00:00,62.3,41.3,29.12,SSE,166,5.4,6.3,46,0.00,,---,0.00,VWS V14.00,2013-10-22 17:00:00,
2013-10-22 12:03:00,62.3,41.3,29.12,SSE,164,5.8,6.3,46,0.00,,---,0.00,VWS V14.00,2013-10-22 17:03:00,
2013-10-22 12:06:00,62.1,41.1,29.12,SSE,152,5.4,6.3,46,0.00,,---,0.00,VWS V14.00,2013-10-22 17:06:00,
2013-10-22 12:09:00,62.1,41.1,29.12,SSE,152,5.4,6.3,46,0.00,,---,0.00,VWS V14.00,2013-10-22 17:09:00,
2013-10-22 12:15:00,62.1,41.7,29.12,SSE,164,4.9,6.3,47,0.00,,---,0.00,VWS V14.00,2013-10-22 17:15:00,
2013-10-22 12:18:00,62.1,41.7,29.12,SSE,164,4.9,6.3,47,0.00,,---,0.00,VWS V14.00,2013-10-22 17:18:00,
2013-10-22 12:21:00,62.1,41.7,29.12,SSE,166,4.9,4.9,47,0.00,,---,0.00,VWS V14.00,2013-10-22 17:21:00,
2013-10-22 12:24:00,62.1,41.7,29.12,South,188,3.6,5.4,47,0.00,,---,0.00,VWS V14.00,2013-10-22 17:24:00,
2013-10-22 12:27:00,62.1,41.7,29.12,SSE,164,5.4,5.4,47,0.00,,---,0.00,VWS V14.00,2013-10-22 17:27:00,
2013-10-22 12:33:00,62.5,42.0,29.09,South,172,6.3,6.3,47,0.00,,---,0.00,VWS V14.00,2013-10-22 17:33:00,
2013-10-22 12:39:00,62.8,42.3,29.09,SSE,160,5.4,6.3,47,0.00,,---,0.00,VWS V14.00,2013-10-22 17:39:00,
2013-10-22 12:42:00,63.0,42.5,29.09,SSW,192,7.2,7.2,47,0.00,,---,0.00,VWS V14.00,2013-10-22 17:42:00,
2013-10-22 12:45:00,63.2,42.7,29.09,SE,142,3.6,7.2,47,0.00,,---,0.00,VWS V14.00,2013-10-22 17:45:00,
2013-10-22 12:48:00,63.4,42.8,29.09,SE,142,3.6,7.2,47,0.00,,---,0.00,VWS V14.00,2013-10-22 17:48:00,
2013-10-22 12:54:00,63.7,43.2,29.09,SSE,150,4.9,4.9,47,0.00,,---,0.00,VWS V14.00,2013-10-22 17:54:00,
2013-10-22 12:57:00,64.3,43.6,29.09,SSE,150,3.1,4.9,47,0.00,,---,0.00,VWS V14.00,2013-10-22 17:57:00,
2013-10-22 13:03:00,64.6,44.0,29.06,ESE,102,4.0,4.9,47,0.00,,---,0.00,VWS V14.00,2013-10-22 18:03:00,
2013-10-22 13:06:00,64.6,44.0,29.06,SSE,149,3.1,4.0,47,0.00,,---,0.00,VWS V14.00,2013-10-22 18:06:00,
2013-10-22 13:09:00,65.2,43.9,29.06,SE,145,3.1,4.0,46,0.00,,---,0.00,VWS V14.00,2013-10-22 18:09:00,
2013-10-22 13:15:00,65.2,43.9,29.06,SSE,168,5.4,6.3,46,0.00,,---,0.00,VWS V14.00,2013-10-22 18:15:00,
2013-10-22 13:18:00,66.1,44.7,29.06,SE,139,3.6,5.4,46,0.00,,---,0.00,VWS V14.00,2013-10-22 18:18:00,
2013-10-22 13:21:00,66.1,44.7,29.06,SE,139,3.6,5.4,46,0.00,,---,0.00,VWS V14.00,2013-10-22 18:21:00,
2013-10-22 13:27:00,67.0,45.0,29.06,SSE,152,4.0,5.4,45,0.00,,---,0.00,VWS V14.00,2013-10-22 18:27:00,
2013-10-22 13:30:00,67.0,45.0,29.03,SSE,152,4.0,5.4,45,0.00,,---,0.00,VWS V14.00,2013-10-22 18:30:00,
2013-10-22 13:33:00,67.5,45.5,29.03,SSE,152,4.0,5.4,45,0.00,,---,0.00,VWS V14.00,2013-10-22 18:33:00,
2013-10-22 13:39:00,68.1,45.9,29.03,SE,139,2.2,5.8,45,0.00,,---,0.00,VWS V14.00,2013-10-22 18:39:00,
2013-10-22 13:46:00,68.4,46.3,29.03,SSE,147,0.0,5.8,45,0.00,,---,0.00,VWS V14.00,2013-10-22 18:46:00,
2013-10-22 13:49:00,69.0,46.2,29.03,SW,228,5.8,7.6,44,0.00,,---,0.00,VWS V14.00,2013-10-22 18:49:00,
2013-10-22 13:52:00,69.3,46.5,29.03,WSW,245,8.3,8.3,44,0.00,,---,0.00,VWS V14.00,2013-10-22 18:52:00,
2013-10-22 13:55:00,69.5,46.7,29.03,SSW,211,3.1,8.3,44,0.00,,---,0.00,VWS V14.00,2013-10-22 18:55:00,
2013-10-22 13:58:00,69.5,46.7,29.03,SSE,147,0.0,8.3,44,0.00,,---,0.00,VWS V14.00,2013-10-22 18:58:00,
2013-10-22 14:03:00,70.0,47.1,29.03,South,180,4.0,8.3,44,0.00,,---,0.00,VWS V14.00,2013-10-22 19:03:00,
2013-10-22 14:04:00,70.0,47.1,29.03,South,180,4.0,4.0,44,0.00,,---,0.00,VWS V14.00,2013-10-22 19:04:00,
2013-10-22 14:10:00,70.9,47.3,29.03,SSE,154,3.6,4.0,43,0.00,,---,0.00,VWS V14.00,2013-10-22 19:10:00,
2013-10-22 14:13:00,71.1,47.5,29.03,SE,134,3.1,4.0,43,0.00,,---,0.00,VWS V14.00,2013-10-22 19:13:00,
2013-10-22 14:16:00,71.1,47.5,29.03,SE,134,3.1,4.0,43,0.00,,---,0.00,VWS V14.00,2013-10-22 19:16:00,
2013-10-22 14:18:00,71.5,47.8,29.03,SE,134,3.1,4.0,43,0.00,,---,0.00,VWS V14.00,2013-10-22 19:18:00,
2013-10-22 14:22:00,71.5,47.8,29.03,NW,305,4.9,4.9,43,0.00,,---,0.00,VWS V14.00,2013-10-22 19:22:00,
2013-10-22 14:25:00,71.8,48.2,29.03,NW,319,2.7,4.9,43,0.00,,---,0.00,VWS V14.00,2013-10-22 19:25:00,
2013-10-22 14:28:00,72.2,47.9,29.03,SW,218,0.0,4.9,42,0.00,,---,0.00,VWS V14.00,2013-10-22 19:28:00,
2013-10-22 14:31:00,72.6,48.2,29.00,SW,218,0.0,4.9,42,0.00,,---,0.00,VWS V14.00,2013-10-22 19:31:00,
2013-10-22 14:33:00,72.6,48.2,29.00,NNE,29,3.1,4.9,42,0.00,,---,0.00,VWS V14.00,2013-10-22 19:33:00,
2013-10-22 14:37:00,73.1,48.0,29.00,North,6,2.7,3.1,41,0.00,,---,0.00,VWS V14.00,2013-10-22 19:37:00,
2013-10-22 14:40:00,73.1,48.0,29.00,SW,222,2.7,3.1,41,0.00,,---,0.00,VWS V14.00,2013-10-22 19:40:00,
2013-10-22 14:43:00,73.5,48.3,29.00,SSW,211,0.0,3.1,41,0.00,,---,0.00,VWS V14.00,2013-10-22 19:43:00,
2013-10-22 14:46:00,73.6,48.5,29.00,WSW,243,0.0,3.1,41,0.00,,---,0.00,VWS V14.00,2013-10-22 19:46:00,
2013-10-22 14:49:00,73.8,48.7,29.00,SW,223,3.1,3.1,41,0.00,,---,0.00,VWS V14.00,2013-10-22 19:49:00,
2013-10-22 14:52:00,74.0,48.2,29.00,West,260,0.0,3.1,40,0.00,,---,0.00,VWS V14.00,2013-10-22 19:52:00,
2013-10-22 14:55:00,74.0,48.2,29.00,NNW,346,0.0,3.1,40,0.00,,---,0.00,VWS V14.00,2013-10-22 19:55:00,
2013-10-22 14:58:00,74.5,48.7,29.00,SW,231,0.0,3.1,40,0.00,,---,0.00,VWS V14.00,2013-10-22 19:58:00,
2013-10-22 15:01:00,74.5,48.7,29.00,South,181,5.4,5.4,40,0.00,,---,0.00,VWS V14.00,2013-10-22 20:01:00,
2013-10-22 15:04:00,74.7,48.8,29.00,North,6,2.7,3.6,40,0.00,,---,0.00,VWS V14.00,2013-10-22 20:04:00,
2013-10-22 15:07:00,74.9,48.3,29.00,North,6,2.7,3.6,39,0.00,,---,0.00,VWS V14.00,2013-10-22 20:07:00,
2013-10-22 15:10:00,75.1,48.5,29.00,North,6,2.7,3.6,39,0.00,,---,0.00,VWS V14.00,2013-10-22 20:10:00,
2013-10-22 15:13:00,75.1,47.8,29.00,South,187,3.6,3.6,38,0.00,,---,0.00,VWS V14.00,2013-10-22 20:13:00,
2013-10-22 15:16:00,75.3,47.9,29.00,WNW,299,4.5,4.5,38,0.00,,---,0.00,VWS V14.00,2013-10-22 20:16:00,
2013-10-22 15:18:00,75.4,48.1,29.00,WNW,299,4.5,4.5,38,0.00,,---,0.00,VWS V14.00,2013-10-22 20:18:00,
2013-10-22 15:25:00,75.6,48.2,29.00,NNW,330,3.6,4.5,38,0.00,,---,0.00,VWS V14.00,2013-10-22 20:25:00,
2013-10-22 15:28:00,75.8,47.7,29.00,SSW,195,3.1,5.8,37,0.00,,---,0.00,VWS V14.00,2013-10-22 20:28:00,
2013-10-22 15:31:00,75.8,47.7,29.00,SSW,195,3.1,5.8,37,0.00,,---,0.00,VWS V14.00,2013-10-22 20:31:00,
2013-10-22 15:33:00,76.0,47.9,29.00,South,183,3.1,5.8,37,0.00,,---,0.00,VWS V14.00,2013-10-22 20:33:00,
2013-10-22 15:37:00,76.0,47.9,29.00,NE,42,2.2,3.1,37,0.00,,---,0.00,VWS V14.00,2013-10-22 20:37:00,
2013-10-22 15:40:00,76.2,47.3,29.00,NE,42,2.2,3.1,36,0.00,,---,0.00,VWS V14.00,2013-10-22 20:40:00,
2013-10-22 15:43:00,76.2,47.3,29.00,North,7,0.0,3.1,36,0.00,,---,0.00,VWS V14.00,2013-10-22 20:43:00,
2013-10-22 15:46:00,76.2,47.3,29.00,SSW,196,2.7,3.1,36,0.00,,---,0.00,VWS V14.00,2013-10-22 20:46:00,
2013-10-22 15:48:00,76.3,47.5,29.00,SSW,210,4.0,4.0,36,0.00,,---,0.00,VWS V14.00,2013-10-22 20:48:00,
2013-10-22 15:49:00,76.3,47.5,29.00,SSW,210,4.0,4.0,36,0.00,,---,0.00,VWS V14.00,2013-10-22 20:49:00,
2013-10-22 15:52:00,76.3,47.5,29.00,SSW,210,4.0,4.0,36,0.00,,---,0.00,VWS V14.00,2013-10-22 20:52:00,
2013-10-22 15:55:00,76.3,47.5,29.00,West,273,3.1,4.0,36,0.00,,---,0.00,VWS V14.00,2013-10-22 20:55:00,
2013-10-22 15:58:00,76.3,46.7,29.00,West,273,3.1,4.0,35,0.00,,---,0.00,VWS V14.00,2013-10-22 20:58:00,
2013-10-22 16:01:00,76.5,46.9,29.00,SSE,164,4.0,4.0,35,0.00,,---,0.00,VWS V14.00,2013-10-22 21:01:00,
2013-10-22 16:03:00,76.5,46.9,29.00,SSE,164,4.0,4.0,35,0.00,,---,0.00,VWS V14.00,2013-10-22 21:03:00,
2013-10-22 16:07:00,76.5,46.9,29.00,NW,317,4.0,4.0,35,0.00,,---,0.00,VWS V14.00,2013-10-22 21:07:00,
2013-10-22 16:10:00,76.5,46.9,29.00,SSW,208,2.7,4.0,35,0.00,,---,0.00,VWS V14.00,2013-10-22 21:10:00,
2013-10-22 16:16:00,76.5,46.9,29.00,NNE,13,4.0,4.0,35,0.00,,---,0.00,VWS V14.00,2013-10-22 21:16:00,
2013-10-22 16:18:00,76.5,46.9,29.00,South,175,2.2,4.0,35,0.00,,---,0.00,VWS V14.00,2013-10-22 21:18:00,
2013-10-22 16:25:00,76.5,46.9,29.00,SW,226,4.9,4.9,35,0.00,,---,0.00,VWS V14.00,2013-10-22 21:25:00,
2013-10-22 16:28:00,76.3,46.7,29.00,South,172,2.7,4.9,35,0.00,,---,0.00,VWS V14.00,2013-10-22 21:28:00,
2013-10-22 16:31:00,76.3,46.7,29.00,North,353,3.1,4.9,35,0.00,,---,0.00,VWS V14.00,2013-10-22 21:31:00,
2013-10-22 16:34:00,76.3,45.9,29.00,North,353,3.1,3.1,34,0.00,,---,0.00,VWS V14.00,2013-10-22 21:34:00,
2013-10-22 16:37:00,76.3,45.9,29.00,North,353,3.1,3.1,34,0.00,,---,0.00,VWS V14.00,2013-10-22 21:37:00,
2013-10-22 16:40:00,76.3,45.9,29.00,NE,40,0.0,3.1,34,0.00,,---,0.00,VWS V14.00,2013-10-22 21:40:00,
2013-10-22 16:43:00,76.2,45.8,29.00,NNE,33,2.7,3.1,34,0.00,,---,0.00,VWS V14.00,2013-10-22 21:43:00,
2013-10-22 16:46:00,76.2,45.8,29.00,NNE,33,2.7,3.1,34,0.00,,---,0.00,VWS V14.00,2013-10-22 21:46:00,
2013-10-22 16:52:00,76.0,45.6,29.00,NNE,33,2.7,2.7,34,0.00,,---,0.00,VWS V14.00,2013-10-22 21:52:00,
2013-10-22 16:55:00,76.0,45.6,29.00,SSE,168,3.1,3.1,34,0.00,,---,0.00,VWS V14.00,2013-10-22 21:55:00,
2013-10-22 16:58:00,75.8,45.5,29.00,South,189,3.1,3.1,34,0.00,,---,0.00,VWS V14.00,2013-10-22 21:58:00,
2013-10-22 17:03:00,75.6,45.3,29.00,SSW,203,9.6,9.6,34,0.00,,---,0.00,VWS V14.00,2013-10-22 22:03:00,
2013-10-22 17:07:00,75.3,45.0,29.00,SSW,203,2.7,9.6,34,0.00,,---,0.00,VWS V14.00,2013-10-22 22:07:00,
2013-10-22 17:13:00,74.9,44.7,29.03,SSE,166,3.6,9.6,34,0.00,,---,0.00,VWS V14.00,2013-10-22 22:13:00,
2013-10-22 17:16:00,74.5,44.4,29.03,South,189,2.7,9.6,34,0.00,,---,0.00,VWS V14.00,2013-10-22 22:16:00,
2013-10-22 17:19:00,74.5,44.4,29.03,NNE,16,0.0,0.0,34,0.00,,---,0.00,VWS V14.00,2013-10-22 22:19:00,
2013-10-22 17:22:00,74.0,43.9,29.03,NNE,16,0.0,0.0,34,0.00,,---,0.00,VWS V14.00,2013-10-22 22:22:00,
2013-10-22 17:25:00,73.8,43.7,29.03,SSE,159,2.7,2.7,34,0.00,,---,0.00,VWS V14.00,2013-10-22 22:25:00,
2013-10-22 17:31:00,73.1,43.1,29.03,SSE,165,0.0,3.1,34,0.00,,---,0.00,VWS V14.00,2013-10-22 22:31:00,
2013-10-22 17:33:00,72.9,42.9,29.03,SSE,165,0.0,3.1,34,0.00,,---,0.00,VWS V14.00,2013-10-22 22:33:00,
2013-10-22 17:34:00,72.9,42.9,29.03,SSE,165,0.0,0.0,34,0.00,,---,0.00,VWS V14.00,2013-10-22 22:34:00,
2013-10-22 17:37:00,72.7,42.8,29.03,SW,235,4.0,4.0,34,0.00,,---,0.00,VWS V14.00,2013-10-22 22:37:00,
2013-10-22 17:40:00,72.6,42.6,29.03,SW,220,0.0,4.0,34,0.00,,---,0.00,VWS V14.00,2013-10-22 22:40:00,
2013-10-22 17:43:00,72.6,42.6,29.03,East,81,0.0,4.0,34,0.00,,---,0.00,VWS V14.00,2013-10-22 22:43:00,
2013-10-22 17:46:00,71.8,42.7,29.03,NW,324,0.0,4.0,35,0.00,,---,0.00,VWS V14.00,2013-10-22 22:46:00,
2013-10-22 17:52:00,71.7,42.6,29.03,SE,131,2.7,4.9,35,0.00,,---,0.00,VWS V14.00,2013-10-22 22:52:00,
2013-10-22 17:55:00,71.1,42.1,29.03,SW,219,2.7,4.9,35,0.00,,---,0.00,VWS V14.00,2013-10-22 22:55:00,
2013-10-22 18:01:00,70.8,41.8,29.03,WSW,238,0.0,4.9,35,0.00,,---,0.00,VWS V14.00,2013-10-22 23:01:00,
2013-10-22 18:03:00,70.6,41.6,29.03,South,187,2.7,4.9,35,0.00,,---,0.00,VWS V14.00,2013-10-22 23:03:00,
2013-10-22 18:04:00,70.6,41.6,29.03,South,187,2.7,2.7,35,0.00,,---,0.00,VWS V14.00,2013-10-22 23:04:00,
2013-10-22 18:07:00,70.2,41.3,29.03,ENE,76,0.0,2.7,35,0.00,,---,0.00,VWS V14.00,2013-10-22 23:07:00,
2013-10-22 18:10:00,70.0,41.2,29.03,ENE,76,0.0,2.7,35,0.00,,---,0.00,VWS V14.00,2013-10-22 23:10:00,
2013-10-22 18:13:00,69.9,41.0,29.03,SSE,167,0.0,2.7,35,0.00,,---,0.00,VWS V14.00,2013-10-22 23:13:00,
2013-10-22 18:18:00,69.5,41.4,29.03,SSE,167,0.0,2.7,36,0.00,,---,0.00,VWS V14.00,2013-10-22 23:18:00,
2013-10-22 18:19:00,69.5,41.4,29.03,SSE,167,0.0,0.0,36,0.00,,---,0.00,VWS V14.00,2013-10-22 23:19:00,
2013-10-22 18:25:00,69.0,40.9,29.03,SW,221,0.0,0.0,36,0.00,,---,0.00,VWS V14.00,2013-10-22 23:25:00,
2013-10-22 18:28:00,69.0,40.9,29.03,SW,221,0.0,0.0,36,0.00,,---,0.00,VWS V14.00,2013-10-22 23:28:00,
2013-10-22 18:31:00,68.6,40.6,29.03,SW,221,0.0,0.0,36,0.00,,---,0.00,VWS V14.00,2013-10-22 23:31:00,
2013-10-22 18:34:00,68.6,40.6,29.03,SW,221,0.0,0.0,36,0.00,,---,0.00,VWS V14.00,2013-10-22 23:34:00,
2013-10-22 18:37:00,68.2,40.3,29.03,WSW,245,0.0,0.0,36,0.00,,---,0.00,VWS V14.00,2013-10-22 23:37:00,
2013-10-22 18:40:00,68.1,40.8,29.03,WSW,245,0.0,0.0,37,0.00,,---,0.00,VWS V14.00,2013-10-22 23:40:00,
2013-10-22 18:43:00,68.1,40.8,29.03,WSW,245,0.0,0.0,37,0.00,,---,0.00,VWS V14.00,2013-10-22 23:43:00,
2013-10-22 18:46:00,67.7,40.5,29.03,WSW,245,0.0,0.0,37,0.00,,---,0.00,VWS V14.00,2013-10-22 23:46:00,
2013-10-22 18:48:00,67.7,40.5,29.03,WSW,245,0.0,0.0,37,0.00,,---,0.00,VWS V14.00,2013-10-22 23:48:00,
2013-10-22 18:52:00,67.3,40.2,29.03,WSW,245,0.0,0.0,37,0.00,,---,0.00,VWS V14.00,2013-10-22 23:52:00,
2013-10-22 18:55:00,67.3,40.2,29.03,WSW,245,0.0,0.0,37,0.00,,---,0.00,VWS V14.00,2013-10-22 23:55:00,
2013-10-22 18:59:00,67.2,40.0,29.03,WSW,245,0.0,0.0,37,0.00,,---,0.00,VWS V14.00,2013-10-22 23:59:00,
2013-10-22 19:02:00,67.0,39.9,29.03,WSW,245,0.0,0.0,37,0.00,,---,0.00,VWS V14.00,2013-10-23 00:02:00,
2013-10-22 19:03:00,66.8,40.4,29.03,WSW,245,0.0,0.0,38,0.00,,---,0.00,VWS V14.00,2013-10-23 00:03:00,
2013-10-22 19:05:00,66.8,40.4,29.03,WSW,245,0.0,0.0,38,0.00,,---,0.00,VWS V14.00,2013-10-23 00:05:00,
2013-10-22 19:08:00,66.8,40.4,29.03,WSW,245,0.0,0.0,38,0.00,,---,0.00,VWS V14.00,2013-10-23 00:08:00,
2013-10-22 19:11:00,66.4,40.1,29.03,WSW,245,0.0,0.0,38,0.00,,---,0.00,VWS V14.00,2013-10-23 00:11:00,
2013-10-22 19:14:00,66.4,40.8,29.03,WSW,245,0.0,0.0,39,0.00,,---,0.00,VWS V14.00,2013-10-23 00:14:00,
2013-10-22 19:18:00,66.1,40.4,29.03,WSW,245,0.0,0.0,39,0.00,,---,0.00,VWS V14.00,2013-10-23 00:18:00,
2013-10-22 19:23:00,65.9,40.9,29.03,WSW,245,0.0,0.0,40,0.00,,---,0.00,VWS V14.00,2013-10-23 00:23:00,
2013-10-22 19:26:00,65.9,40.9,29.03,WSW,245,0.0,0.0,40,0.00,,---,0.00,VWS V14.00,2013-10-23 00:26:00,
2013-10-22 19:29:00,65.7,40.8,29.03,WSW,245,0.0,0.0,40,0.00,,---,0.00,VWS V14.00,2013-10-23 00:29:00,
2013-10-22 19:32:00,65.5,40.6,29.03,WSW,245,0.0,0.0,40,0.00,,---,0.00,VWS V14.00,2013-10-23 00:32:00,
2013-10-22 19:33:00,65.5,40.6,29.03,WSW,245,0.0,0.0,40,0.00,,---,0.00,VWS V14.00,2013-10-23 00:33:00,
2013-10-22 19:35:00,65.4,41.1,29.03,WSW,245,0.0,0.0,41,0.00,,---,0.00,VWS V14.00,2013-10-23 00:35:00,
2013-10-22 19:38:00,65.4,41.1,29.03,WSW,245,0.0,0.0,41,0.00,,---,0.00,VWS V14.00,2013-10-23 00:38:00,
2013-10-22 19:41:00,65.4,41.1,29.03,WSW,245,0.0,0.0,41,0.00,,---,0.00,VWS V14.00,2013-10-23 00:41:00,
2013-10-22 19:47:00,65.2,41.5,29.06,WSW,245,0.0,0.0,42,0.00,,---,0.00,VWS V14.00,2013-10-23 00:47:00,
2013-10-22 19:48:00,65.2,41.5,29.06,WSW,245,0.0,0.0,42,0.00,,---,0.00,VWS V14.00,2013-10-23 00:48:00,
2013-10-22 19:50:00,65.0,41.4,29.06,West,266,0.0,0.0,42,0.00,,---,0.00,VWS V14.00,2013-10-23 00:50:00,
2013-10-22 19:56:00,64.8,41.8,29.06,West,266,0.0,0.0,43,0.00,,---,0.00,VWS V14.00,2013-10-23 00:56:00,
2013-10-22 20:02:00,64.6,41.7,29.06,West,266,0.0,0.0,43,0.00,,---,0.00,VWS V14.00,2013-10-23 01:02:00,
2013-10-22 20:03:00,64.6,41.7,29.06,West,266,0.0,0.0,43,0.00,,---,0.00,VWS V14.00,2013-10-23 01:03:00,
2013-10-22 20:08:00,64.5,42.1,29.06,West,266,0.0,0.0,44,0.00,,---,0.00,VWS V14.00,2013-10-23 01:08:00,
2013-10-22 20:14:00,64.3,41.9,29.06,West,266,0.0,0.0,44,0.00,,---,0.00,VWS V14.00,2013-10-23 01:14:00,
2013-10-22 20:17:00,64.3,41.9,29.06,West,266,0.0,0.0,44,0.00,,---,0.00,VWS V14.00,2013-10-23 01:17:00,
2013-10-22 20:20:00,64.1,41.8,29.06,SW,222,0.0,0.0,44,0.00,,---,0.00,VWS V14.00,2013-10-23 01:20:00,
2013-10-22 20:23:00,64.1,41.8,29.06,WSW,239,0.0,0.0,44,0.00,,---,0.00,VWS V14.00,2013-10-23 01:23:00,
2013-10-22 20:26:00,63.9,42.2,29.06,WSW,239,0.0,0.0,45,0.00,,---,0.00,VWS V14.00,2013-10-23 01:26:00,
2013-10-22 20:29:00,63.9,42.2,29.06,WSW,239,0.0,0.0,45,0.00,,---,0.00,VWS V14.00,2013-10-23 01:29:00,
2013-10-22 20:32:00,63.7,42.0,29.06,WSW,239,0.0,0.0,45,0.00,,---,0.00,VWS V14.00,2013-10-23 01:32:00,
2013-10-22 20:33:00,63.7,42.0,29.06,WSW,239,0.0,0.0,45,0.00,,---,0.00,VWS V14.00,2013-10-23 01:33:00,
2013-10-22 20:35:00,63.7,41.4,29.06,WSW,239,0.0,0.0,44,0.00,,---,0.00,VWS V14.00,2013-10-23 01:35:00,
2013-10-22 20:41:00,63.6,41.3,29.06,WSW,247,0.0,0.0,44,0.00,,---,0.00,VWS V14.00,2013-10-23 01:41:00,
2013-10-22 20:44:00,63.6,41.3,29.06,NE,35,0.0,0.0,44,0.00,,---,0.00,VWS V14.00,2013-10-23 01:44:00,
2013-10-22 20:47:00,63.6,41.3,29.06,SW,218,0.0,2.2,44,0.00,,---,0.00,VWS V14.00,2013-10-23 01:47:00,
2013-10-22 20:48:00,63.6,41.3,29.06,SW,218,0.0,2.2,44,0.00,,---,0.00,VWS V14.00,2013-10-23 01:48:00,
2013-10-22 20:50:00,63.6,41.3,29.06,SW,234,0.0,0.0,44,0.00,,---,0.00,VWS V14.00,2013-10-23 01:50:00,
2013-10-22 20:56:00,63.6,41.3,29.06,SW,226,0.0,2.7,44,0.00,,---,0.00,VWS V14.00,2013-10-23 01:56:00,
2013-10-22 20:59:00,63.6,41.3,29.06,SSW,209,0.0,2.7,44,0.00,,---,0.00,VWS V14.00,2013-10-23 01:59:00,
2013-10-22 21:02:00,63.6,41.3,29.06,East,95,0.0,2.7,44,0.00,,---,0.00,VWS V14.00,2013-10-23 02:02:00,
2013-10-22 21:05:00,63.6,41.3,29.06,North,357,0.0,0.0,44,0.00,,---,0.00,VWS V14.00,2013-10-23 02:05:00,
2013-10-22 21:08:00,63.6,41.3,29.06,SSW,210,0.0,0.0,44,0.00,,---,0.00,VWS V14.00,2013-10-23 02:08:00,
2013-10-22 21:14:00,63.6,41.3,29.09,SW,226,2.7,3.1,44,0.00,,---,0.00,VWS V14.00,2013-10-23 02:14:00,
2013-10-22 21:17:00,63.6,41.3,29.09,North,353,0.0,3.1,44,0.00,,---,0.00,VWS V14.00,2013-10-23 02:17:00,
2013-10-22 21:20:00,63.6,41.3,29.09,NW,321,0.0,3.1,44,0.00,,---,0.00,VWS V14.00,2013-10-23 02:20:00,
2013-10-22 21:26:00,63.6,41.3,29.09,SSE,152,0.0,3.1,44,0.00,,---,0.00,VWS V14.00,2013-10-23 02:26:00,
2013-10-22 21:29:00,63.6,41.3,29.09,SSW,210,0.0,3.1,44,0.00,,---,0.00,VWS V14.00,2013-10-23 02:29:00,
2013-10-22 21:32:00,63.6,41.3,29.09,SSW,208,0.0,3.1,44,0.00,,---,0.00,VWS V14.00,2013-10-23 02:32:00,
2013-10-22 21:33:00,63.6,41.3,29.09,South,180,3.1,3.1,44,0.00,,---,0.00,VWS V14.00,2013-10-23 02:33:00,
2013-10-22 21:35:00,63.6,41.3,29.09,SSW,206,0.0,3.1,44,0.00,,---,0.00,VWS V14.00,2013-10-23 02:35:00,
2013-10-22 21:38:00,63.6,41.3,29.09,SSW,206,0.0,3.1,44,0.00,,---,0.00,VWS V14.00,2013-10-23 02:38:00,
2013-10-22 21:41:00,63.6,41.3,29.09,SW,224,0.0,3.1,44,0.00,,---,0.00,VWS V14.00,2013-10-23 02:41:00,
2013-10-22 21:44:00,63.6,41.3,29.09,SW,225,0.0,3.1,44,0.00,,---,0.00,VWS V14.00,2013-10-23 02:44:00,
2013-10-22 21:47:00,63.6,41.3,29.09,SW,225,0.0,3.1,44,0.00,,---,0.00,VWS V14.00,2013-10-23 02:47:00,
2013-10-22 21:50:00,63.6,41.3,29.09,SW,225,0.0,0.0,44,0.00,,---,0.00,VWS V14.00,2013-10-23 02:50:00,
2013-10-22 21:53:00,63.6,41.3,29.09,SW,231,2.7,2.7,44,0.00,,---,0.00,VWS V14.00,2013-10-23 02:53:00,
2013-10-22 21:59:00,61.4,38.7,29.09,SSW,199,0.0,2.7,43,0.00,,---,0.00,VWS V14.00,2013-10-23 02:59:00,
2013-10-22 22:03:00,61.4,38.7,29.09,North,353,4.0,4.0,43,0.00,,---,0.00,VWS V14.00,2013-10-23 03:03:00,
2013-10-22 22:05:00,61.4,38.7,29.09,North,353,4.0,4.0,43,0.00,,---,0.00,VWS V14.00,2013-10-23 03:05:00,
2013-10-22 22:08:00,61.4,38.7,29.09,SSW,213,0.0,4.0,43,0.00,,---,0.00,VWS V14.00,2013-10-23 03:08:00,
2013-10-22 22:15:00,61.4,38.7,29.12,South,190,2.2,4.0,43,0.00,,---,0.00,VWS V14.00,2013-10-23 03:15:00,
2013-10-22 22:18:00,61.4,38.7,29.12,North,4,3.1,4.0,43,0.00,,---,0.00,VWS V14.00,2013-10-23 03:18:00,
2013-10-22 22:21:00,61.4,38.7,29.12,West,269,2.7,3.1,43,0.00,,---,0.00,VWS V14.00,2013-10-23 03:21:00,
2013-10-22 22:24:00,61.4,38.7,29.12,North,353,3.1,3.1,43,0.00,,---,0.00,VWS V14.00,2013-10-23 03:24:00,
2013-10-22 22:27:00,61.4,38.7,29.12,South,180,2.7,3.1,43,0.00,,---,0.00,VWS V14.00,2013-10-23 03:27:00,
2013-10-22 22:30:00,61.4,38.7,29.12,NNE,19,2.2,3.1,43,0.00,,---,0.00,VWS V14.00,2013-10-23 03:30:00,
2013-10-22 22:33:00,60.3,37.8,29.12,North,353,3.6,3.6,43,0.00,,---,0.00,VWS V14.00,2013-10-23 03:33:00,
2013-10-22 22:36:00,60.3,37.8,29.12,NNW,335,3.1,3.6,43,0.00,,---,0.00,VWS V14.00,2013-10-23 03:36:00,
2013-10-22 22:39:00,60.3,37.8,29.12,WNW,298,2.7,3.6,43,0.00,,---,0.00,VWS V14.00,2013-10-23 03:39:00,
2013-10-22 22:42:00,60.3,37.8,29.12,WSW,253,0.0,3.6,43,0.00,,---,0.00,VWS V14.00,2013-10-23 03:42:00,
2013-10-22 22:45:00,60.0,37.4,29.12,NNE,28,0.0,3.6,43,0.00,,---,0.00,VWS V14.00,2013-10-23 03:45:00,
2013-10-22 22:48:00,60.0,37.4,29.12,North,0,2.2,3.6,43,0.00,,---,0.00,VWS V14.00,2013-10-23 03:48:00,
2013-10-22 22:54:00,60.0,37.4,29.12,SSW,208,0.0,2.2,43,0.00,,---,0.00,VWS V14.00,2013-10-23 03:54:00,
2013-10-22 22:57:00,60.0,37.4,29.12,SSW,208,2.7,2.7,43,0.00,,---,0.00,VWS V14.00,2013-10-23 03:57:00,
2013-10-22 23:00:00,59.8,37.3,29.12,SSW,208,2.7,2.7,43,0.00,,---,0.00,VWS V14.00,2013-10-23 04:00:00,
2013-10-22 23:03:00,59.8,37.3,29.12,NNE,24,0.0,2.7,43,0.00,,---,0.00,VWS V14.00,2013-10-23 04:03:00,
2013-10-22 23:06:00,59.8,37.3,29.12,NNE,17,3.1,3.1,43,0.00,,---,0.00,VWS V14.00,2013-10-23 04:06:00,
2013-10-22 23:09:00,59.8,37.3,29.12,SW,214,0.0,3.1,43,0.00,,---,0.00,VWS V14.00,2013-10-23 04:09:00,
2013-10-22 23:12:00,59.4,36.9,29.12,South,191,0.0,3.1,43,0.00,,---,0.00,VWS V14.00,2013-10-23 04:12:00,
2013-10-22 23:15:00,59.4,36.9,29.12,SSW,192,0.0,3.1,43,0.00,,---,0.00,VWS V14.00,2013-10-23 04:15:00,
2013-10-22 23:18:00,59.4,36.9,29.12,South,191,0.0,3.1,43,0.00,,---,0.00,VWS V14.00,2013-10-23 04:18:00,
2013-10-22 23:21:00,59.4,36.9,29.12,South,191,0.0,0.0,43,0.00,,---,0.00,VWS V14.00,2013-10-23 04:21:00,
2013-10-22 23:24:00,59.1,36.6,29.12,North,9,0.0,0.0,43,0.00,,---,0.00,VWS V14.00,2013-10-23 04:24:00,
2013-10-22 23:27:00,59.1,36.6,29.12,WSW,256,0.0,0.0,43,0.00,,---,0.00,VWS V14.00,2013-10-23 04:27:00,
2013-10-22 23:30:00,59.1,36.6,29.12,WSW,256,0.0,0.0,43,0.00,,---,0.00,VWS V14.00,2013-10-23 04:30:00,
2013-10-22 23:33:00,59.1,36.6,29.12,SW,217,0.0,0.0,43,0.00,,---,0.00,VWS V14.00,2013-10-23 04:33:00,
2013-10-22 23:36:00,59.1,36.6,29.12,SW,217,0.0,0.0,43,0.00,,---,0.00,VWS V14.00,2013-10-23 04:36:00,
2013-10-22 23:39:00,58.7,36.3,29.12,SW,218,0.0,0.0,43,0.00,,---,0.00,VWS V14.00,2013-10-23 04:39:00,
2013-10-22 23:45:00,58.7,36.3,29.12,South,188,0.0,2.2,43,0.00,,---,0.00,VWS V14.00,2013-10-23 04:45:00,
2013-10-22 23:48:00,58.5,36.1,29.12,SSW,200,0.0,2.2,43,0.00,,---,0.00,VWS V14.00,2013-10-23 04:48:00,
2013-10-22 23:51:00,58.5,36.1,29.12,SSW,204,0.0,0.0,43,0.00,,---,0.00,VWS V14.00,2013-10-23 04:51:00,
2013-10-22 23:54:00,58.5,36.1,29.12,SSW,206,2.7,2.7,43,0.00,,---,0.00,VWS V14.00,2013-10-23 04:54:00,
2013-10-22 23:57:00,58.5,36.1,29.12,SSW,206,3.1,3.1,43,0.00,,---,0.00,VWS V14.00,2013-10-23 04:57:00,